TimeEST,TemperatureF,Dew PointF,Humidity,Sea Level PressureIn,VisibilityMPH,Wind Direction,Wind SpeedMPH,Gust SpeedMPH,PrecipitationIn,Events,Conditions,WindDirDegrees,DateUTC
12:15 AM,32.0,12.2,44,30.06,10.0,NW,5.8,-,N/A,,Clear,310,2013-01-21 05:15:00
12:35 AM,32.0,12.2,44,30.06,10.0,WNW,4.6,-,N/A,,Clear,290,2013-01-21 05:35:00
12:55 AM,30.2,14.0,51,30.07,10.0,WNW,8.1,-,N/A,,Clear,300,2013-01-21 05:55:00
1:15 AM,30.2,14.0,51,30.08,10.0,WNW,3.5,-,N/A,,Clear,300,2013-01-21 06:15:00
1:35 AM,30.2,14.0,51,30.09,10.0,WNW,8.1,-,N/A,,Clear,290,2013-01-21 06:35:00
1:55 AM,30.2,14.0,51,30.09,10.0,WNW,5.8,-,N/A,,Clear,290,2013-01-21 06:55:00
2:15 AM,30.2,14.0,51,30.09,10.0,NW,6.9,-,N/A,,Clear,310,2013-01-21 07:15:00
2:35 AM,30.2,14.0,51,30.09,10.0,WNW,4.6,-,N/A,,Clear,290,2013-01-21 07:35:00
2:55 AM,28.4,14.0,55,30.10,10.0,West,4.6,-,N/A,,Clear,270,2013-01-21 07:55:00
3:15 AM,28.4,12.2,51,30.09,10.0,NW,5.8,-,N/A,,Clear,320,2013-01-21 08:15:00
3:35 AM,28.4,12.2,51,30.08,10.0,NW,3.5,-,N/A,,Clear,320,2013-01-21 08:35:00
3:55 AM,28.4,14.0,55,30.09,10.0,Calm,Calm,-,N/A,,Clear,0,2013-01-21 08:55:00
4:15 AM,28.4,14.0,55,30.08,10.0,Calm,Calm,-,N/A,,Clear,0,2013-01-21 09:15:00
4:35 AM,28.4,14.0,55,30.08,10.0,Calm,Calm,-,N/A,,Clear,0,2013-01-21 09:35:00
4:55 AM,28.4,12.2,51,30.08,10.0,Calm,Calm,-,N/A,,Clear,0,2013-01-21 09:55:00
5:15 AM,28.4,14.0,55,30.07,10.0,Calm,Calm,-,N/A,,Clear,0,2013-01-21 10:15:00
5:35 AM,26.6,15.8,64,30.07,10.0,Calm,Calm,-,N/A,,Clear,0,2013-01-21 10:35:00
5:55 AM,24.8,15.8,69,30.07,10.0,Calm,Calm,-,N/A,,Clear,0,2013-01-21 10:55:00
6:15 AM,24.8,17.6,74,30.07,10.0,Calm,Calm,-,N/A,,Clear,0,2013-01-21 11:15:00
6:35 AM,23.0,17.6,80,30.08,10.0,Calm,Calm,-,N/A,,Clear,0,2013-01-21 11:35:00
6:55 AM,26.6,15.8,64,30.08,10.0,Calm,Calm,-,N/A,,Clear,0,2013-01-21 11:55:00
7:15 AM,24.8,17.6,74,30.08,10.0,Calm,Calm,-,N/A,,Clear,0,2013-01-21 12:15:00
7:35 AM,24.8,17.6,74,30.08,10.0,Calm,Calm,-,N/A,,Clear,0,2013-01-21 12:35:00
7:55 AM,24.8,19.4,80,30.08,10.0,Calm,Calm,-,N/A,,Clear,0,2013-01-21 12:55:00
8:15 AM,26.6,19.4,74,30.09,10.0,Calm,Calm,-,N/A,,Clear,0,2013-01-21 13:15:00
8:35 AM,28.4,14.0,55,30.09,10.0,Calm,Calm,-,N/A,,Clear,0,2013-01-21 13:35:00
8:55 AM,28.4,12.2,51,30.09,10.0,Calm,Calm,-,N/A,,Clear,0,2013-01-21 13:55:00
9:15 AM,30.2,12.2,47,30.09,10.0,Calm,Calm,-,N/A,,Clear,0,2013-01-21 14:15:00
9:35 AM,30.2,12.2,47,30.09,10.0,Calm,Calm,-,N/A,,Clear,0,2013-01-21 14:35:00
9:55 AM,30.2,10.4,44,30.08,10.0,Calm,Calm,-,N/A,,Clear,0,2013-01-21 14:55:00
10:15 AM,30.2,10.4,44,30.07,10.0,Calm,Calm,-,N/A,,Clear,0,2013-01-21 15:15:00
10:35 AM,30.2,10.4,44,30.06,10.0,Calm,Calm,-,N/A,,Clear,0,2013-01-21 15:35:00
10:55 AM,32.0,12.2,44,30.06,10.0,South,4.6,-,N/A,,Clear,180,2013-01-21 15:55:00
11:15 AM,32.0,12.2,44,30.04,10.0,Calm,Calm,-,N/A,,Clear,0,2013-01-21 16:15:00
11:35 AM,32.0,12.2,44,30.03,10.0,South,4.6,-,N/A,,Clear,180,2013-01-21 16:35:00
11:55 AM,32.0,12.2,44,30.01,10.0,South,8.1,-,N/A,,Clear,190,2013-01-21 16:55:00
12:15 PM,32.0,12.2,44,30.00,10.0,SW,8.1,-,N/A,,Clear,230,2013-01-21 17:15:00
12:35 PM,32.0,12.2,44,29.98,10.0,South,6.9,-,N/A,,Clear,180,2013-01-21 17:35:00
12:55 PM,32.0,12.2,44,29.97,10.0,South,5.8,-,N/A,,Clear,190,2013-01-21 17:55:00
1:15 PM,32.0,14.0,48,29.96,10.0,SSW,8.1,-,N/A,,Clear,200,2013-01-21 18:15:00
1:35 PM,32.0,14.0,48,29.95,10.0,South,6.9,-,N/A,,Clear,180,2013-01-21 18:35:00
1:55 PM,32.0,14.0,48,29.94,10.0,South,5.8,-,N/A,,Clear,190,2013-01-21 18:55:00
2:15 PM,32.0,14.0,48,29.93,10.0,South,4.6,-,N/A,,Clear,190,2013-01-21 19:15:00
2:35 PM,32.0,14.0,48,29.91,10.0,Calm,Calm,-,N/A,,Clear,0,2013-01-21 19:35:00
2:55 PM,32.0,14.0,48,29.90,10.0,SSE,4.6,-,N/A,,Clear,150,2013-01-21 19:55:00
3:15 PM,32.0,14.0,48,29.88,10.0,SSE,4.6,-,N/A,,Clear,150,2013-01-21 20:15:00
3:35 PM,32.0,14.0,48,29.88,10.0,South,3.5,-,N/A,,Clear,170,2013-01-21 20:35:00
3:55 PM,33.8,14.0,44,29.86,10.0,South,3.5,-,N/A,,Scattered Clouds,180,2013-01-21 20:55:00
4:15 PM,33.8,14.0,44,29.86,10.0,South,4.6,-,N/A,,Mostly Cloudy,170,2013-01-21 21:15:00
4:35 PM,32.0,15.8,51,29.86,10.0,Calm,Calm,-,N/A,,Scattered Clouds,0,2013-01-21 21:35:00
4:55 PM,32.0,14.0,48,29.86,10.0,Calm,Calm,-,N/A,,Scattered Clouds,0,2013-01-21 21:55:00
5:15 PM,32.0,15.8,51,29.86,10.0,Calm,Calm,-,N/A,,Scattered Clouds,0,2013-01-21 22:15:00
5:35 PM,32.0,17.6,55,29.86,10.0,Calm,Calm,-,N/A,,Scattered Clouds,0,2013-01-21 22:35:00
5:55 PM,32.0,17.6,55,29.86,10.0,Calm,Calm,-,N/A,,Scattered Clouds,0,2013-01-21 22:55:00
6:15 PM,32.0,17.6,55,29.86,10.0,Calm,Calm,-,N/A,,Mostly Cloudy,0,2013-01-21 23:15:00
6:35 PM,32.0,17.6,55,29.87,7.0,Calm,Calm,-,N/A,,Mostly Cloudy,0,2013-01-21 23:35:00
6:55 PM,30.2,26.6,86,29.88,1.2,Calm,Calm,-,N/A,,Overcast,0,2013-01-21 23:55:00
7:15 PM,30.2,28.4,93,29.88,0.8,NW,4.6,-,0.01,,Overcast,320,2013-01-22 00:15:00
7:55 PM,30.2,26.6,86,29.89,10.0,West,3.5,-,0.01,,Mostly Cloudy,280,2013-01-22 00:55:00
8:15 PM,30.2,26.6,86,29.89,10.0,NW,8.1,-,N/A,,Mostly Cloudy,320,2013-01-22 01:15:00
8:35 PM,30.2,23.0,75,29.87,7.0,NW,3.5,-,N/A,,Overcast,320,2013-01-22 01:35:00
8:55 PM,30.2,21.2,69,29.88,10.0,Calm,Calm,-,N/A,,Mostly Cloudy,0,2013-01-22 01:55:00
9:15 PM,30.2,21.2,69,29.87,10.0,WNW,6.9,-,N/A,,Scattered Clouds,300,2013-01-22 02:15:00
9:35 PM,30.2,21.2,69,29.87,10.0,NW,3.5,-,N/A,,Scattered Clouds,310,2013-01-22 02:35:00
9:55 PM,30.2,23.0,75,29.87,10.0,NW,5.8,-,N/A,,Scattered Clouds,320,2013-01-22 02:55:00
10:15 PM,30.2,21.2,69,29.87,10.0,NW,8.1,-,N/A,,Clear,310,2013-01-22 03:15:00
10:35 PM,28.4,17.6,64,29.87,10.0,WNW,8.1,20.7,N/A,,Clear,300,2013-01-22 03:35:00
10:55 PM,28.4,14.0,55,29.87,10.0,WNW,11.5,17.3,N/A,,Clear,300,2013-01-22 03:55:00
11:15 PM,28.4,12.2,51,29.88,10.0,NW,15.0,23.0,N/A,,Clear,310,2013-01-22 04:15:00
11:35 PM,28.4,10.4,47,29.87,10.0,WNW,10.4,19.6,N/A,,Clear,300,2013-01-22 04:35:00
11:55 PM,28.4,10.4,47,29.88,10.0,WNW,8.1,17.3,N/A,,Clear,290,2013-01-22 04:55:00